IRIDIUM 16 [-]

Last updated on Wed Jun 28 2023 00:03:01 GMT+0000 (Coordinated Universal Time)

1 24841U 97030F 23178.43434207 .00000586 00000+0 18978-3 0 9990 2 24841 86.4051 147.8700 0000356 60.6823 299.4410 14.37412736363684

Satellite not in orbit

IRIDIUM 16 [-]